239ALFEROV (RS61S)

Last updated on Tue Aug 25 2026 00:03:14 GMT+0000 (Coordinated Universal Time)

1 64881U 25155F 26236.58905028 .00014393 00000+0 43035-3 0 9998 2 64881 97.4610 206.5168 0004859 304.5630 55.5154 15.34667740 91290
UTC large
Height (km)
Speed (km/s)
/
Latitude / Longitude
Inclination (degrees)
Orbital Period (minutes)
Azimuth
Elevation
Range (km)
Doppler Factor

Next 0 passes for location: London (51.5072 / 0.1276)

No passes found over London.
239ALFEROV (RS61S)